Retour au catalogue

THORAD AGENA D DEB

ActifLEO
NORAD 5422·DEBRIS·🇺🇸 United States

Lancé Apr 8, 1970 depuis Vandenberg Space Force Base

Loading…

Prochains Passages (prochaines 24 heures)

TLE

FraisSource: Space-Track

Époque: Sep 13, 2026, 23:43 UTC

1 05422U 70025LA  26256.98858978  .00004430  00000-0  11588-2 0  9996
2 05422 100.0059  97.2464 0067279 113.3764 247.4519 14.48647418869842

Suivez THORAD AGENA D DEB en temps réel avec AllMySat

Download on the App Store